Location: Cudham
(51.3000°N, 0.0667°E)
Time: 07:14:37
(UTC+00:00)

Cosmos 2150 Rocket - Pass Details

Date: 19 May 2025
Orbit: 745 x 804 km, 74.0° (Epoch: 18 June)

Event Time Altitude Azimuth Distance (km) Brightness Sun altitude
Rises 21:32:15 0° 335° (NNW) 3,291 9.2 -12.1°
Reaches altitude 10° 21:34:38 10° 336° (NNW) 2,366 8.0 -12.3°
Maximum altitude 21:40:03 86° 63° (ENE) 807 4.1 -12.7°
Enters shadow 21:44:06 18° 155° (SSE) 1,853 5.3 -13.1°
